When you browse on this site, cookies collect data to enhance your experience and personalize the content and advertising you see.
Visit our Privacy Policy to learn more. By continuing to use the site, you agree to this use of cookies and data.
  • In United Kingdom
  • List of Countries
  • For 7 days
  • Water Temperature
  • Satellite Maps
  • Weather Map
  • Weather Widgets
  • user-avatar
    Login

    Hourly Weather Mayrhofen

    Today, 24 July, Wednesday

    Time Temperature Precipitation Wind Pressure Humidity
    00:00 +13°C° 0 mm 1 mps 622 mmHg 85%
    01:00 +13°C° 0 mm 1 mps 622 mmHg 84%
    02:00 +13°C° 0 mm 1 mps 622 mmHg 85%
    03:00 +13°C° 0 mm 1 mps 622 mmHg 85%
    04:00 +12°C° 0 mm 1 mps 621 mmHg 86%
    05:00 +15°C° 0 mm 1 mps 622 mmHg 80%
    06:00 +16°C° 0 mm 0 mps 623 mmHg 75%
    07:00 +18°C° 0 mm 0 mps 624 mmHg 69%
    08:00 +22°C° 0 mm 1 mps 625 mmHg 62%
    09:00 +24°C° 0 mm 1 mps 625 mmHg 55%
    10:00 +26°C° 0 mm 1 mps 626 mmHg 48%
    11:00 +26°C° 0 mm 1 mps 626 mmHg 44%
    12:00 +27°C° 0 mm 1 mps 626 mmHg 41%
    13:00 +28°C° 0 mm 2 mps 626 mmHg 37%
    14:00 +27°C° 0.2 mm 2 mps 626 mmHg 41%
    15:00 +26°C° 0.2 mm 2 mps 626 mmHg 45%
    16:00 +26°C° 0.2 mm 2 mps 625 mmHg 49%
    17:00 +24°C° 0.9 mm 2 mps 625 mmHg 59%
    18:00 +22°C° 0.9 mm 1 mps 624 mmHg 69%
    19:00 +21°C° 0.9 mm 1 mps 624 mmHg 80%
    20:00 +19°C° 0.8 mm 1 mps 623 mmHg 82%
    21:00 +18°C° 0.8 mm 1 mps 623 mmHg 85%
    22:00 +15°C° 0.8 mm 1 mps 623 mmHg 88%
    23:00 +15°C° 0.3 mm 1 mps 623 mmHg 89%

    Tomorrow, 25 July, Thursday

    Time Temperature Precipitation Wind Pressure Humidity
    00:00 +14°C° 0.3 mm 1 mps 622 mmHg 89%
    01:00 +14°C° 0.3 mm 1 mps 622 mmHg 89%
    02:00 +14°C° 0 mm 1 mps 622 mmHg 89%
    03:00 +14°C° 0 mm 1 mps 622 mmHg 89%
    04:00 +13°C° 0 mm 1 mps 622 mmHg 89%
    05:00 +14°C° 0 mm 0 mps 622 mmHg 85%
    06:00 +16°C° 0 mm 0 mps 623 mmHg 81%
    07:00 +18°C° 0 mm 0 mps 624 mmHg 77%
    08:00 +19°C° 0 mm 0 mps 624 mmHg 69%
    09:00 +21°C° 0 mm 0 mps 625 mmHg 61%
    10:00 +25°C° 0 mm 1 mps 626 mmHg 53%
    11:00 +26°C° 0.3 mm 1 mps 626 mmHg 51%
    12:00 +26°C° 0.3 mm 1 mps 625 mmHg 49%
    13:00 +27°C° 0.3 mm 1 mps 625 mmHg 48%
    14:00 +26°C° 1.3 mm 1 mps 625 mmHg 51%
    15:00 +25°C° 1.3 mm 1 mps 624 mmHg 55%
    16:00 +25°C° 1.3 mm 1 mps 624 mmHg 58%
    17:00 +23°C° 1.3 mm 1 mps 623 mmHg 67%
    18:00 +20°C° 1.3 mm 0 mps 623 mmHg 75%
    19:00 +18°C° 1.3 mm 0 mps 622 mmHg 84%
    20:00 +19°C° 0.7 mm 1 mps 622 mmHg 84%
    21:00 +18°C° 0.7 mm 1 mps 622 mmHg 85%
    22:00 +16°C° 0.7 mm 1 mps 621 mmHg 86%
    23:00 +15°C° 0 mm 1 mps 621 mmHg 86%

    Day after tomorrow, 26 July, Friday

    Time Temperature Precipitation Wind Pressure Humidity
    00:00 +15°C° 0 mm 1 mps 621 mmHg 86%
    01:00 +14°C° 0 mm 1 mps 620 mmHg 87%
    02:00 +14°C° 0 mm 1 mps 620 mmHg 87%
    03:00 +14°C° 0 mm 1 mps 619 mmHg 87%
    04:00 +12°C° 0 mm 0 mps 619 mmHg 86%
    05:00 +14°C° 0 mm 0 mps 620 mmHg 83%
    06:00 +16°C° 0 mm 0 mps 620 mmHg 79%
    07:00 +17°C° 0 mm 0 mps 621 mmHg 75%
    08:00 +19°C° 0.2 mm 0 mps 621 mmHg 69%
    09:00 +22°C° 0.2 mm 1 mps 622 mmHg 63%
    10:00 +24°C° 0.2 mm 1 mps 622 mmHg 57%
    11:00 +24°C° 0.5 mm 1 mps 622 mmHg 56%
    12:00 +24°C° 0.5 mm 1 mps 621 mmHg 55%
    13:00 +24°C° 0.5 mm 1 mps 621 mmHg 55%
    14:00 +24°C° 1.2 mm 1 mps 620 mmHg 58%
    15:00 +23°C° 1.2 mm 1 mps 620 mmHg 62%
    16:00 +22°C° 1.2 mm 1 mps 619 mmHg 66%
    17:00 +21°C° 1.7 mm 1 mps 619 mmHg 73%
    18:00 +19°C° 1.7 mm 1 mps 618 mmHg 80%
    19:00 +18°C° 1.7 mm 1 mps 618 mmHg 87%
    20:00 +16°C° 0.5 mm 1 mps 617 mmHg 88%
    21:00 +15°C° 0.5 mm 1 mps 617 mmHg 89%
    22:00 +13°C° 0.5 mm 1 mps 616 mmHg 90%
    23:00 +13°C° 0 mm 1 mps 616 mmHg 90%

    27 July, Saturday

    Time Temperature Precipitation Wind Pressure Humidity
    00:00 +12°C° 0 mm 1 mps 615 mmHg 89%
    01:00 +12°C° 0 mm 1 mps 615 mmHg 89%
    02:00 +11°C° 0 mm 1 mps 614 mmHg 89%
    03:00 +11°C° 0 mm 1 mps 614 mmHg 89%
    04:00 +10°C° 0 mm 0 mps 614 mmHg 88%
    05:00 +12°C° 0 mm 0 mps 614 mmHg 85%
    06:00 +13°C° 0 mm 0 mps 615 mmHg 81%
    07:00 +15°C° 0 mm 0 mps 615 mmHg 78%
    08:00 +16°C° 0.3 mm 0 mps 616 mmHg 72%
    09:00 +18°C° 0.3 mm 0 mps 616 mmHg 66%
    10:00 +21°C° 0.3 mm 1 mps 617 mmHg 60%
    11:00 +22°C° 0.9 mm 1 mps 616 mmHg 59%
    12:00 +22°C° 0.9 mm 1 mps 616 mmHg 59%
    13:00 +22°C° 0.9 mm 1 mps 616 mmHg 58%
    14:00 +21°C° 1.4 mm 1 mps 615 mmHg 67%
    15:00 +19°C° 1.4 mm 1 mps 615 mmHg 75%
    16:00 +18°C° 1.4 mm 1 mps 614 mmHg 84%
    17:00 +16°C° 1 mm 1 mps 614 mmHg 86%
    18:00 +15°C° 1 mm 1 mps 613 mmHg 89%
    19:00 +14°C° 1 mm 1 mps 613 mmHg 91%
    20:00 +14°C° 0.1 mm 1 mps 613 mmHg 91%
    21:00 +13°C° 0.1 mm 1 mps 613 mmHg 90%
    22:00 +13°C° 0.1 mm 1 mps 613 mmHg 90%
    23:00 +12°C° 0 mm 1 mps 612 mmHg 90%

    28 July, Sunday

    Time Temperature Precipitation Wind Pressure Humidity
    00:00 +11°C° 0 mm 1 mps 612 mmHg 91%
    01:00 +11°C° 0 mm 1 mps 612 mmHg 91%
    02:00 +11°C° 0 mm 1 mps 612 mmHg 91%
    03:00 +11°C° 0 mm 1 mps 612 mmHg 91%
    04:00 +10°C° 0 mm 0 mps 611 mmHg 91%
    05:00 +11°C° 0 mm 0 mps 612 mmHg 89%
    06:00 +12°C° 0 mm 0 mps 612 mmHg 87%
    07:00 +13°C° 0 mm 0 mps 613 mmHg 85%
    08:00 +14°C° 0.4 mm 1 mps 613 mmHg 84%
    09:00 +15°C° 0.4 mm 1 mps 614 mmHg 82%
    10:00 +16°C° 0.4 mm 2 mps 614 mmHg 80%
    11:00 +16°C° 1.4 mm 2 mps 614 mmHg 83%
    12:00 +15°C° 1.4 mm 2 mps 614 mmHg 86%
    13:00 +15°C° 1.4 mm 2 mps 614 mmHg 89%
    14:00 +15°C° 0.9 mm 2 mps 614 mmHg 92%
    15:00 +14°C° 0.9 mm 2 mps 614 mmHg 94%
    16:00 +13°C° 0.9 mm 2 mps 614 mmHg 96%
    17:00 +13°C° 1 mm 2 mps 614 mmHg 97%
    18:00 +13°C° 1 mm 2 mps 614 mmHg 97%
    19:00 +12°C° 1 mm 2 mps 614 mmHg 98%
    20:00 +12°C° 1.1 mm 2 mps 615 mmHg 98%
    21:00 +12°C° 1.1 mm 2 mps 615 mmHg 98%
    22:00 +12°C° 1.1 mm 1 mps 615 mmHg 98%
    23:00 +12°C° 0.2 mm 2 mps 615 mmHg 98%

    29 July, Monday

    Time Temperature Precipitation Wind Pressure Humidity
    00:00 +12°C° 0.2 mm 2 mps 615 mmHg 98%
    01:00 +10°C° 0.2 mm 2 mps 616 mmHg 98%
    02:00 +10°C° 0.1 mm 2 mps 616 mmHg 98%
    03:00 +10°C° 0.1 mm 2 mps 616 mmHg 98%
    04:00 +10°C° 0.1 mm 2 mps 616 mmHg 98%
    05:00 +12°C° 0 mm 2 mps 616 mmHg 97%
    06:00 +12°C° 0 mm 2 mps 616 mmHg 97%
    07:00 +12°C° 0 mm 2 mps 617 mmHg 96%
    08:00 +13°C° 0.1 mm 2 mps 617 mmHg 93%
    09:00 +14°C° 0.1 mm 2 mps 618 mmHg 89%
    10:00 +15°C° 0.1 mm 2 mps 618 mmHg 86%
    11:00 +16°C° 0 mm 2 mps 619 mmHg 77%
    12:00 +17°C° 0 mm 2 mps 619 mmHg 69%
    13:00 +19°C° 0 mm 2 mps 620 mmHg 61%
    14:00 +18°C° 0 mm 2 mps 620 mmHg 63%
    15:00 +18°C° 0 mm 2 mps 620 mmHg 64%
    16:00 +18°C° 0 mm 2 mps 620 mmHg 66%
    17:00 +17°C° 0 mm 2 mps 619 mmHg 71%
    18:00 +16°C° 0 mm 2 mps 619 mmHg 77%
    19:00 +16°C° 0 mm 2 mps 619 mmHg 82%
    20:00 +14°C° 0 mm 1 mps 619 mmHg 87%
    21:00 +12°C° 0 mm 1 mps 619 mmHg 91%
    22:00 +11°C° 0 mm 1 mps 618 mmHg 96%
    23:00 +10°C° 0 mm 1 mps 618 mmHg 95%
    Show more